"Pseudo-MPEC" for P10UbR5

Created 2019 Nov 12 5:07:14 UT using Find_Orb

Click here for an explanation of pseudo-MPECs

 
 Astrometry: 
     P10UbR5  C2019 11 05ObiAstrometry;xrf,qcJZOZyredacted;no4WF`BC'6PftrC$ZfF51
     P10UbR5  C2019 11 05s2fclickkRMb;wvjWv9'dJM$lK_\UK0MH4aihere-N/RZ\fornv4F51
     P10UbR5  C2019 11 05k@EA3L+]TcOYHe4tv;vdeL*uXeWM;kr[k9o=x,Ka6*/!r]w3ZjEhF51
     P10UbR5  C2019 11 05ttF_,MTQEjB89`6EeQ[p;]BR4Vexplanation2PF2rt`?4llhDlXF51

Station data:
(F51) Pan-STARRS 1, Haleakala  (N20.707235 W156.255910)  US/Hawaii.
   Observers N. Primak, A. Schultz, S. Watters, J. Thiel, T. Goggia. Measurer
   PS1 Science Consortium. 1.8-m Ritchey-Chrétien + CCD.

Orbital elements:  P10UbR5
   Perihelion 2020 Jun 9.113936 +/- 187 TT =  2:44:04 (JD 2459009.613936)
Epoch 2019 Nov  5.0 TT = JDT 2458792.5   Earth MOID: 0.5272   Ma: 0.0842
M 271.15569583 +/- 60               (J2000 ecliptic)          AutoNEOCP
n   0.40920590 +/- 0.26             Peri.  134.47629 +/- 90
a   1.79683468 +/- 0.761            Node    15.21466 +/- 40
e   0.1769186 +/- 0.281             Incl.   21.58882 +/- 26
P   2.41/879.74d           H 20.3   G  0.15   U 11.8  SR
q 1.47894108 +/- 0.74    Q 2.11472829 +/- 35.1
From 4 observations 2019 Nov. 5 (50.5 min); mean residual 0".14
Residuals in arcseconds: 
191105 F51  .12+  .16-    191105 F51  .15-  .15+    
191105 F51  .11-  .17+    191105 F51  .14+  .15-    

Ephemerides (geocentric):
Date (UTC) HH   RA              Dec         delta   r     elong  mag " sig PA
---- -- -- --  -------------   -----------  ------ ------ -----  --- ---- ---
2019 11 12 05  01 30 41.797   +32 18 54.13  .88911 1.8299 153.7 22.1  18d 161
2019 11 12 06  01 30 36.974   +32 19 02.07  .88918 1.8298 153.7 22.1  18d 162
2019 11 12 07  01 30 32.155   +32 19 09.98  .88925 1.8298 153.6 22.1  18d 163
2019 11 12 08  01 30 27.340   +32 19 17.85  .88932 1.8297 153.6 22.1  18d 163
2019 11 12 09  01 30 22.528   +32 19 25.69  .88939 1.8296 153.6 22.1  19d 164
2019 11 12 10  01 30 17.720   +32 19 33.50  .88946 1.8295 153.5 22.1  19d 165
2019 11 12 11  01 30 12.916   +32 19 41.27  .88953 1.8294 153.5 22.1  19d 166
2019 11 12 12  01 30 08.115   +32 19 49.01  .88960 1.8293 153.4 22.1  19d 167
2019 11 12 13  01 30 03.318   +32 19 56.72  .88968 1.8292 153.4 22.1  19d 168
2019 11 12 14  01 29 58.525   +32 20 04.39  .88975 1.8291 153.4 22.1  19d 169
2019 11 12 15  01 29 53.735   +32 20 12.03  .88982 1.8290 153.3 22.1  19d 170
2019 11 12 16  01 29 48.950   +32 20 19.64  .88989 1.8289 153.3 22.1  20d 171
2019 11 12 17  01 29 44.168   +32 20 27.21  .88997 1.8288 153.2 22.1  20d 172
2019 11 12 18  01 29 39.390   +32 20 34.75  .89004 1.8287 153.2 22.1  20d 173
2019 11 12 19  01 29 34.615   +32 20 42.25  .89012 1.8286 153.1 22.1  20d 174
2019 11 12 20  01 29 29.845   +32 20 49.72  .89019 1.8286 153.1 22.1  20d 174
2019 11 12 21  01 29 25.078   +32 20 57.16  .89026 1.8285 153.1 22.1  20d 175
2019 11 12 22  01 29 20.315   +32 21 04.56  .89034 1.8284 153.0 22.1  20d 176
2019 11 12 23  01 29 15.556   +32 21 11.94  .89042 1.8283 153.0 22.1  21d 176
2019 11 13 00  01 29 10.801   +32 21 19.27  .89049 1.8282 152.9 22.1  21d 177
2019 11 13 01  01 29 06.049   +32 21 26.58  .89057 1.8281 152.9 22.1  21d 178
2019 11 13 02  01 29 01.302   +32 21 33.85  .89065 1.8280 152.9 22.1  21d 178
2019 11 13 03  01 28 56.558   +32 21 41.09  .89072 1.8279 152.8 22.1  21d 178
2019 11 13 04  01 28 51.818   +32 21 48.30  .89080 1.8278 152.8 22.1  21d 179
2019 11 13 05  01 28 47.082   +32 21 55.47  .89088 1.8277 152.7 22.1  21d 179
2019 11 13 06  01 28 42.350   +32 22 02.61  .89096 1.8276 152.7 22.1  21d   0
2019 11 13 07  01 28 37.622   +32 22 09.72  .89104 1.8275 152.7 22.1  21d   0
2019 11 13 08  01 28 32.898   +32 22 16.80  .89111 1.8274 152.6 22.1  23d 157
2019 11 13 09  01 28 28.178   +32 22 23.84  .89119 1.8274 152.6 22.1  23d 157
2019 11 13 10  01 28 23.462   +32 22 30.85  .89127 1.8273 152.5 22.1  23d 157
2019 11 13 11  01 28 18.750   +32 22 37.83  .89135 1.8272 152.5 22.1  23d 157
2019 11 13 12  01 28 14.042   +32 22 44.78  .89144 1.8271 152.4 22.1  23d 157
2019 11 13 13  01 28 09.337   +32 22 51.69  .89152 1.8270 152.4 22.1  23d 157
2019 11 13 14  01 28 04.637   +32 22 58.57  .89160 1.8269 152.4 22.1  23d 157
2019 11 13 15  01 27 59.941   +32 23 05.42  .89168 1.8268 152.3 22.1  23d 157
2019 11 13 16  01 27 55.249   +32 23 12.24  .89176 1.8267 152.3 22.2  23d 157
2019 11 13 17  01 27 50.560   +32 23 19.02  .89185 1.8266 152.2 22.2  23d 157
2019 11 13 18  01 27 45.876   +32 23 25.77  .89193 1.8265 152.2 22.2  23d 157
2019 11 13 19  01 27 41.196   +32 23 32.49  .89201 1.8264 152.2 22.2  23d 157
2019 11 13 20  01 27 36.520   +32 23 39.18  .89210 1.8263 152.1 22.2  23d 157
2019 11 13 21  01 27 31.848   +32 23 45.84  .89218 1.8262 152.1 22.2  24d 157
2019 11 13 22  01 27 27.181   +32 23 52.46  .89227 1.8261 152.0 22.2  24d 157
2019 11 13 23  01 27 22.517   +32 23 59.06  .89235 1.8261 152.0 22.2  24d 157
2019 11 14 00  01 27 17.857   +32 24 05.62  .89244 1.8260 151.9 22.2  24d 157
2019 11 14 01  01 27 13.202   +32 24 12.15  .89252 1.8259 151.9 22.2  24d 157
2019 11 14 02  01 27 08.550   +32 24 18.64  .89261 1.8258 151.9 22.2  25d 157
2019 11 14 03  01 27 03.903   +32 24 25.11  .89269 1.8257 151.8 22.2  25d 157
2019 11 14 04  01 26 59.260   +32 24 31.55  .89278 1.8256 151.8 22.2  25d 157